{"data":{"norad_id":62756,"intl_designator":"2025-014X","name":"USA 485","alt_names":[],"object_type":"PAYLOAD","status":"ACTIVE","operator":null,"country":"US","launch_date":"2025-01-21","launch_site_code":"AFETR","launch_vehicle":null,"mission":null,"orbit_class":"UNKNOWN","rcs_meters":null,"size_class":null,"mass_kg":null,"dimensions":null,"purposes":[],"wikipedia_slug":null,"has_3d_model":false,"image_url":null,"decayed_at":null,"tle_current":{"epoch":"2026-05-24T23:16:52.879872Z","epoch_age_seconds":84556,"freshness":"FRESH","line1":"1 62756U 25014X   26144.97005648  .00279297  00000+0  16567-2 0  9996","line2":"2 62756  42.9991 251.9345 0001145 279.6586  80.4154 15.76441511 77107","mean_motion":15.76441511,"eccentricity":0.0001145,"inclination_deg":42.9991,"raan_deg":251.9345,"arg_perigee_deg":279.6586,"mean_anomaly_deg":80.4154,"bstar":0.0016567,"rev_number":7710,"period_min":91.344968395722,"perigee_km":339.76303283342,"apogee_km":341.30160810781,"semimajor_km":6718.6693204706,"source":"CELESTRAK","updated_at":"2026-05-25T13:38:03.241408Z"}}}